Time,TemperatureF,DewpointF,PressureIn,WindDirection,WindDirectionDegrees,WindSpeedMPH,WindSpeedGustMPH,Humidity,HourlyPrecipIn,Conditions,Clouds,dailyrainin,SoftwareType,DateUTC
2013-03-12 00:08:00,41.8,40.0,30.16,South,190,2.0,3.0,92,0.00,,,0.00,weatherlink.com 1.10,2013-03-12 04:08:00,
2013-03-12 00:23:00,41.6,40.0,30.15,South,169,0.0,2.0,93,0.00,,,0.00,weatherlink.com 1.10,2013-03-12 04:23:00,
2013-03-12 00:38:00,41.3,40.0,30.15,SSE,159,0.0,1.0,93,0.00,,,0.00,weatherlink.com 1.10,2013-03-12 04:38:00,
2013-03-12 00:53:00,41.2,40.0,30.16,SW,219,0.0,2.0,94,0.00,,,0.00,weatherlink.com 1.10,2013-03-12 04:53:00,
2013-03-12 01:08:00,41.0,39.0,30.15,SSW,211,1.0,4.0,93,0.00,,,0.00,weatherlink.com 1.10,2013-03-12 05:08:00,
2013-03-12 01:23:00,41.6,40.0,30.14,SSW,192,3.0,6.0,94,0.00,,,0.00,weatherlink.com 1.10,2013-03-12 05:23:00,
2013-03-12 01:38:00,42.2,41.0,30.14,SE,138,2.0,7.0,94,0.00,,,0.00,weatherlink.com 1.10,2013-03-12 05:38:00,
2013-03-12 01:53:00,42.1,41.0,30.14,SW,228,2.0,3.0,94,0.00,,,0.00,weatherlink.com 1.10,2013-03-12 05:53:00,
2013-03-12 02:08:00,42.0,40.0,30.13,SE,138,1.0,4.0,94,0.00,,,0.00,weatherlink.com 1.10,2013-03-12 06:08:00,
2013-03-12 02:24:00,42.1,41.0,30.13,SSE,165,2.0,3.0,94,0.00,,,0.00,weatherlink.com 1.10,2013-03-12 06:24:00,
2013-03-12 02:38:00,42.1,41.0,30.12,SSE,148,1.0,2.0,94,0.00,,,0.00,weatherlink.com 1.10,2013-03-12 06:38:00,
2013-03-12 02:53:00,42.2,41.0,30.11,South,170,0.0,4.0,94,0.00,,,0.00,weatherlink.com 1.10,2013-03-12 06:53:00,
2013-03-12 03:09:00,42.5,41.0,30.11,South,186,0.0,2.0,95,0.00,,,0.00,weatherlink.com 1.10,2013-03-12 07:09:00,
2013-03-12 03:24:00,42.3,41.0,30.09,SSE,158,0.0,1.0,94,0.00,,,0.00,weatherlink.com 1.10,2013-03-12 07:24:00,
2013-03-12 03:39:00,42.1,41.0,30.09,South,183,1.0,2.0,94,0.00,,,0.00,weatherlink.com 1.10,2013-03-12 07:39:00,
2013-03-12 03:54:00,42.2,41.0,30.07,SE,143,0.0,3.0,94,0.00,,,0.00,weatherlink.com 1.10,2013-03-12 07:54:00,
2013-03-12 04:09:00,42.6,41.0,30.07,SSE,148,1.0,2.0,95,0.00,,,0.00,weatherlink.com 1.10,2013-03-12 08:09:00,
2013-03-12 04:24:00,42.9,42.0,30.08,SE,141,0.0,1.0,95,0.00,,,0.00,weatherlink.com 1.10,2013-03-12 08:24:00,
2013-03-12 04:39:00,42.9,42.0,30.07,SE,141,0.0,1.0,95,0.00,,,0.00,weatherlink.com 1.10,2013-03-12 08:39:00,
2013-03-12 04:54:00,42.4,41.0,30.07,SE,141,0.0,1.0,95,0.00,,,0.00,weatherlink.com 1.10,2013-03-12 08:54:00,
2013-03-12 05:09:00,42.3,41.0,30.06,ESE,107,0.0,1.0,94,0.00,,,0.00,weatherlink.com 1.10,2013-03-12 09:09:00,
2013-03-12 05:24:00,43.0,42.0,30.06,SSE,163,0.0,2.0,95,0.00,,,0.00,weatherlink.com 1.10,2013-03-12 09:24:00,
2013-03-12 05:39:00,43.7,42.0,30.07,SSE,162,0.0,1.0,95,0.00,,,0.00,weatherlink.com 1.10,2013-03-12 09:39:00,
2013-03-12 05:54:00,44.2,43.0,30.06,SE,135,0.0,2.0,95,0.00,,,0.00,weatherlink.com 1.10,2013-03-12 09:54:00,
2013-03-12 06:09:00,44.6,43.0,30.07,SE,129,0.0,3.0,95,0.00,,,0.00,weatherlink.com 1.10,2013-03-12 10:09:00,
2013-03-12 06:24:00,45.5,45.0,30.07,NNW,340,0.0,5.0,96,0.00,,,0.00,weatherlink.com 1.10,2013-03-12 10:24:00,
2013-03-12 06:39:00,45.9,45.0,30.06,SW,224,0.0,4.0,95,0.00,,,0.00,weatherlink.com 1.10,2013-03-12 10:39:00,
2013-03-12 06:55:00,46.0,45.0,30.06,ENE,63,0.0,5.0,95,0.00,,,0.00,weatherlink.com 1.10,2013-03-12 10:55:00,
2013-03-12 07:09:00,46.0,45.0,30.05,SW,215,0.0,5.0,95,0.00,,,0.00,weatherlink.com 1.10,2013-03-12 11:09:00,
2013-03-12 07:24:00,45.8,45.0,30.04,South,186,0.0,3.0,95,0.00,,,0.00,weatherlink.com 1.10,2013-03-12 11:24:00,
2013-03-12 07:39:00,45.9,45.0,30.05,SSE,165,1.0,3.0,95,0.00,,,0.00,weatherlink.com 1.10,2013-03-12 11:39:00,
2013-03-12 07:54:00,45.9,45.0,30.05,SSE,150,0.0,2.0,95,0.00,,,0.00,weatherlink.com 1.10,2013-03-12 11:54:00,
2013-03-12 08:09:00,46.0,45.0,30.04,SSW,201,1.0,3.0,95,0.00,,,0.00,weatherlink.com 1.10,2013-03-12 12:09:00,
2013-03-12 08:24:00,46.8,46.0,30.04,SSE,163,3.0,3.0,95,0.00,,,0.00,weatherlink.com 1.10,2013-03-12 12:24:00,
2013-03-12 08:39:00,47.6,46.0,30.03,South,182,2.0,3.0,95,0.00,,,0.00,weatherlink.com 1.10,2013-03-12 12:39:00,
2013-03-12 08:54:00,48.8,47.0,30.04,WSW,242,2.0,5.0,94,0.00,,,0.00,weatherlink.com 1.10,2013-03-12 12:54:00,
2013-03-12 09:10:00,50.1,48.0,30.04,SE,142,5.0,6.0,92,0.00,,,0.00,weatherlink.com 1.10,2013-03-12 13:10:00,
2013-03-12 09:24:00,50.6,48.0,30.05,WSW,257,1.0,10.0,91,0.00,,,0.00,weatherlink.com 1.10,2013-03-12 13:24:00,
2013-03-12 09:39:00,51.0,49.0,30.04,SSE,156,2.0,6.0,91,0.00,,,0.00,weatherlink.com 1.10,2013-03-12 13:39:00,
2013-03-12 09:54:00,51.2,48.0,30.04,SSE,161,2.0,9.0,90,0.00,,,0.00,weatherlink.com 1.10,2013-03-12 13:54:00,
2013-03-12 10:09:00,51.2,48.0,30.03,SSE,158,3.0,5.0,90,0.00,,,0.00,weatherlink.com 1.10,2013-03-12 14:09:00,
2013-03-12 10:25:00,51.6,49.0,30.03,East,88,3.0,7.0,90,0.00,,,0.00,weatherlink.com 1.10,2013-03-12 14:25:00,
2013-03-12 10:40:00,52.0,49.0,30.02,SW,233,3.0,9.0,89,0.00,,,0.00,weatherlink.com 1.10,2013-03-12 14:40:00,
2013-03-12 10:55:00,52.4,49.0,30.01,WSW,246,3.0,8.0,89,0.00,,,0.00,weatherlink.com 1.10,2013-03-12 14:55:00,
2013-03-12 11:10:00,52.7,49.0,30.01,SSE,150,2.0,10.0,88,0.00,,,0.00,weatherlink.com 1.10,2013-03-12 15:10:00,
2013-03-12 11:25:00,53.0,50.0,30.01,SSW,207,2.0,11.0,88,0.00,,,0.00,weatherlink.com 1.10,2013-03-12 15:25:00,
2013-03-12 11:40:00,53.4,50.0,29.99,WSW,247,1.0,8.0,87,0.00,,,0.00,weatherlink.com 1.10,2013-03-12 15:40:00,
2013-03-12 11:55:00,53.8,50.0,29.99,SE,134,4.0,14.0,86,0.00,,,0.00,weatherlink.com 1.10,2013-03-12 15:55:00,
2013-03-12 12:10:00,54.1,50.0,29.98,ENE,72,2.0,14.0,86,0.00,,,0.00,weatherlink.com 1.10,2013-03-12 16:10:00,
2013-03-12 12:25:00,54.6,50.0,29.97,SE,132,2.0,9.0,85,0.00,,,0.00,weatherlink.com 1.10,2013-03-12 16:25:00,
2013-03-12 12:40:00,54.7,50.0,29.97,ESE,118,5.0,9.0,85,0.00,,,0.00,weatherlink.com 1.10,2013-03-12 16:40:00,
2013-03-12 12:55:00,54.7,50.0,29.96,SW,230,3.0,16.0,84,0.00,,,0.00,weatherlink.com 1.10,2013-03-12 16:55:00,
2013-03-12 13:10:00,55.7,51.0,29.95,ENE,76,6.0,9.0,83,0.00,,,0.00,weatherlink.com 1.10,2013-03-12 17:10:00,
2013-03-12 13:25:00,56.5,51.0,29.95,SW,226,4.0,10.0,82,0.00,,,0.00,weatherlink.com 1.10,2013-03-12 17:25:00,
2013-03-12 13:40:00,56.9,51.0,29.94,SSE,158,5.0,8.0,81,0.00,,,0.00,weatherlink.com 1.10,2013-03-12 17:40:00,
2013-03-12 13:55:00,57.2,51.0,29.93,East,89,8.0,8.0,80,0.00,,,0.00,weatherlink.com 1.10,2013-03-12 17:55:00,
2013-03-12 14:10:00,57.2,51.0,29.92,WSW,252,1.0,9.0,80,0.00,,,0.00,weatherlink.com 1.10,2013-03-12 18:10:00,
2013-03-12 14:25:00,57.1,51.0,29.91,South,176,5.0,9.0,80,0.00,,,0.00,weatherlink.com 1.10,2013-03-12 18:25:00,
2013-03-12 14:40:00,56.9,51.0,29.91,SSE,166,6.0,10.0,81,0.00,,,0.00,weatherlink.com 1.10,2013-03-12 18:40:00,
2013-03-12 14:55:00,57.2,51.0,29.90,WSW,246,7.0,12.0,80,0.00,,,0.00,weatherlink.com 1.10,2013-03-12 18:55:00,
2013-03-12 15:10:00,57.1,51.0,29.90,SW,231,6.0,11.0,80,0.00,,,0.00,weatherlink.com 1.10,2013-03-12 19:10:00,
2013-03-12 15:25:00,56.8,51.0,29.89,WNW,287,3.0,8.0,80,0.00,,,0.00,weatherlink.com 1.10,2013-03-12 19:25:00,
2013-03-12 15:40:00,56.5,51.0,29.88,South,172,5.0,8.0,81,0.00,,,0.00,weatherlink.com 1.10,2013-03-12 19:40:00,
2013-03-12 15:55:00,56.2,51.0,29.87,South,169,2.0,14.0,82,0.00,,,0.00,weatherlink.com 1.10,2013-03-12 19:55:00,
2013-03-12 16:10:00,55.6,51.0,29.87,SW,233,3.0,12.0,84,0.00,,,0.00,weatherlink.com 1.10,2013-03-12 20:10:00,
2013-03-12 16:25:00,55.0,51.0,29.86,SSE,152,5.0,14.0,85,0.00,,,0.00,weatherlink.com 1.10,2013-03-12 20:25:00,
2013-03-12 16:41:00,54.5,51.0,29.85,ESE,118,6.0,12.0,87,0.00,,,0.00,weatherlink.com 1.10,2013-03-12 20:41:00,
2013-03-12 16:56:00,54.4,51.0,29.85,ENE,59,8.0,10.0,89,0.00,,,0.00,weatherlink.com 1.10,2013-03-12 20:56:00,
2013-03-12 17:11:00,54.4,51.0,29.84,SSW,207,4.0,11.0,89,0.00,,,0.00,weatherlink.com 1.10,2013-03-12 21:11:00,
2013-03-12 17:26:00,54.4,52.0,29.82,SE,127,2.0,14.0,90,0.00,,,0.00,weatherlink.com 1.10,2013-03-12 21:26:00,
2013-03-12 17:41:00,54.4,52.0,29.82,SE,130,4.0,12.0,90,0.00,,,0.00,weatherlink.com 1.10,2013-03-12 21:41:00,
2013-03-12 17:56:00,54.4,52.0,29.81,SE,136,10.0,14.0,90,0.00,,,0.00,weatherlink.com 1.10,2013-03-12 21:56:00,
2013-03-12 18:11:00,54.3,52.0,29.80,SE,124,6.0,16.0,91,0.01,,,0.01,weatherlink.com 1.10,2013-03-12 22:11:00,
2013-03-12 18:41:00,54.4,52.0,29.78,SE,146,5.0,16.0,92,0.04,,,0.04,weatherlink.com 1.10,2013-03-12 22:41:00,
2013-03-12 19:11:00,54.2,52.0,29.77,SSW,201,4.0,13.0,93,0.09,,,0.10,weatherlink.com 1.10,2013-03-12 23:11:00,
2013-03-12 19:26:00,54.3,52.0,29.77,SE,131,4.0,11.0,93,0.13,,,0.15,weatherlink.com 1.10,2013-03-12 23:26:00,
2013-03-12 19:41:00,54.5,53.0,29.76,ESE,121,3.0,15.0,93,0.15,,,0.19,weatherlink.com 1.10,2013-03-12 23:41:00,
2013-03-12 19:56:00,54.5,53.0,29.75,SSE,155,12.0,14.0,93,0.18,,,0.25,weatherlink.com 1.10,2013-03-12 23:56:00,
2013-03-12 20:11:00,54.4,53.0,29.74,ESE,121,6.0,15.0,93,0.21,,,0.31,weatherlink.com 1.10,2013-03-13 00:11:00,
2013-03-12 20:26:00,54.4,53.0,29.73,SSW,204,8.0,11.0,94,0.19,,,0.34,weatherlink.com 1.10,2013-03-13 00:26:00,
2013-03-12 20:41:00,54.5,53.0,29.73,SE,127,3.0,13.0,94,0.15,,,0.35,weatherlink.com 1.10,2013-03-13 00:41:00,
2013-03-12 20:56:00,54.7,53.0,29.74,West,270,1.0,10.0,94,0.10,,,0.36,weatherlink.com 1.10,2013-03-13 00:56:00,
2013-03-12 21:11:00,54.8,53.0,29.74,SW,226,7.0,9.0,95,0.05,,,0.37,weatherlink.com 1.10,2013-03-13 01:11:00,
2013-03-12 21:41:00,55.0,53.0,29.73,SW,217,5.0,17.0,93,0.03,,,0.38,weatherlink.com 1.10,2013-03-13 01:41:00,
2013-03-12 21:56:00,54.9,53.0,29.73,WSW,248,8.0,13.0,93,0.01,,,0.38,weatherlink.com 1.10,2013-03-13 01:56:00,
2013-03-12 22:11:00,54.7,53.0,29.73,NW,307,2.0,9.0,92,0.01,,,0.38,weatherlink.com 1.10,2013-03-13 02:11:00,
2013-03-12 22:26:00,54.5,53.0,29.72,WSW,257,5.0,8.0,93,0.01,,,0.38,weatherlink.com 1.10,2013-03-13 02:26:00,
2013-03-12 22:41:00,54.1,52.0,29.72,SSE,150,3.0,9.0,93,0.00,,,0.38,weatherlink.com 1.10,2013-03-13 02:41:00,
2013-03-12 22:56:00,54.0,52.0,29.73,SSE,150,1.0,6.0,94,0.00,,,0.38,weatherlink.com 1.10,2013-03-13 02:56:00,
2013-03-12 23:11:00,53.6,52.0,29.73,SSE,155,1.0,5.0,94,0.00,,,0.38,weatherlink.com 1.10,2013-03-13 03:11:00,
2013-03-12 23:26:00,53.3,52.0,29.74,SW,221,0.0,6.0,95,0.00,,,0.38,weatherlink.com 1.10,2013-03-13 03:26:00,
2013-03-12 23:41:00,53.1,52.0,29.73,South,179,1.0,4.0,95,0.00,,,0.38,weatherlink.com 1.10,2013-03-13 03:41:00,
2013-03-12 23:56:00,52.9,52.0,29.73,South,191,1.0,2.0,95,0.00,,,0.38,weatherlink.com 1.10,2013-03-13 03:56:00,